This demonstration page uses our WeatherBlox Daily Observations layout. Learn more.

Left ArrowRight Arrow

39.51506, -84.39828

Hourly Observations for January 29, 2021

Temp ( °F °C ) Dew Point ( °F °C ) Humidity (%) Winds ( mph kmh ) Pressure ( in mb ) Visibility ( mi km ) Precip ( " mm )
12:15 am 00:15 Clear 24 -4.7 17 -8.4 76 76 NW 5 7 30.57 1035 10 16.0934 N/A
12:35 am 00:35 Clear 23 -5.1 17 -8.3 79 79 NW 3 6 30.57 1035 10 16.0934 N/A
12:55 am 00:55 Clear 21 -6.1 17 -8.1 86 86 NW 3 6 30.56 1035 10 16.0934 N/A
1:15 am 01:15 Clear 19 -7.4 16 -8.8 90 90 NW 3 6 30.57 1035 10 16.0934 N/A
1:35 am 01:35 Clear 19 -7.1 17 -8.4 91 91 N N/A 30.56 1035 10 16.0934 N/A
1:55 am 01:55 Clear 19 -7.5 16 -8.8 91 91 N N/A 30.57 1035 10 16.0934 N/A
2:15 am 02:15 Clear 19 -7.2 17 -8.3 92 92 N N/A 30.56 1035 10 16.0934 N/A
2:35 am 02:35 Clear 19 -7.4 17 -8.6 91 91 N N/A 30.57 1035 10 16.0934 N/A
2:55 am 02:55 Mostly Cloudy 19 -7.5 17 -8.5 93 93 NW 3 6 30.58 1035 10 16.0934 N/A
3:15 am 03:15 Mostly Cloudy 20 -6.4 17 -8.4 86 86 N N/A 30.57 1035 10 16.0934 N/A
3:35 am 03:35 Clear 20 -6.4 17 -8.3 87 87 N 5 7 30.56 1035 10 16.0934 N/A
3:55 am 03:55 Clear 21 -6.2 17 -8.6 83 83 N 6 9 30.55 1035 10 16.0934 N/A
4:15 am 04:15 Clear 21 -5.9 17 -8.6 81 81 NNE 3 6 30.54 1034 10 16.0934 N/A
4:35 am 04:35 Clear 22 -5.8 17 -8.6 81 81 N 3 6 30.53 1034 10 16.0934 N/A
4:55 am 04:55 Clear 22 -5.8 16 -8.8 80 80 N N/A 30.53 1034 10 16.0934 N/A
5:15 am 05:15 Clear 22 -5.8 16 -8.8 80 80 NW 5 7 30.53 1034 10 16.0934 N/A
5:35 am 05:35 Clear 22 -5.8 16 -8.8 80 80 N 5 7 30.53 1034 10 16.0934 N/A
5:55 am 05:55 Clear 22 -5.8 16 -8.8 80 80 N 3 6 30.53 1034 10 16.0934 N/A
6:15 am 06:15 Clear 22 -5.8 16 -8.9 79 79 N N/A 30.53 1034 10 16.0934 N/A
6:35 am 06:35 Clear 22 -5.8 16 -8.9 79 79 N N/A 30.53 1034 10 16.0934 N/A
6:55 am 06:55 Clear 22 -5.7 16 -8.7 80 80 N N/A 30.53 1034 10 16.0934 N/A
7:15 am 07:15 Clear 22 -5.7 16 -8.8 79 79 NNE 3 6 30.54 1034 10 16.0934 N/A
7:35 am 07:35 Clear 22 -5.6 17 -8.6 80 80 N N/A 30.54 1034 10 16.0934 N/A
7:55 am 07:55 Sunny 22 -5.6 17 -8.6 80 80 N 3 6 30.55 1035 10 16.0934 N/A
8:15 am 08:15 Sunny 22 -5.5 17 -8.6 79 79 N N/A 30.55 1035 10 16.0934 N/A
8:35 am 08:35 Mostly Cloudy 22 -5.4 17 -8.5 79 79 N N/A 30.55 1035 10 16.0934 N/A
8:55 am 08:55 Cloudy 23 -5.2 17 -8.4 78 78 NW 3 6 30.55 1035 10 16.0934 N/A
9:15 am 09:15 Cloudy 23 -5.1 17 -8.6 77 77 N 3 6 30.55 1035 10 16.0934 N/A
9:35 am 09:35 Cloudy 23 -4.9 17 -8.4 77 77 NNW 3 6 30.55 1035 10 16.0934 N/A
9:55 am 09:55 Cloudy 24 -4.7 17 -8.4 76 76 NNW 3 6 30.55 1035 10 16.0934 N/A
10:15 am 10:15 Cloudy 24 -4.5 17 -8.6 73 73 N N/A 30.54 1034 10 16.0934 N/A
10:35 am 10:35 Cloudy 24 -4.4 16 -8.8 72 72 N N/A 30.54 1034 10 16.0934 N/A
10:55 am 10:55 Cloudy 25 -4 14 -9.9 64 64 N N/A 30.54 1034 10 16.0934 N/A
11:15 am 11:15 Cloudy 25 -3.8 15 -9.3 66 66 N N/A 30.54 1034 10 16.0934 N/A
11:35 am 11:35 Cloudy 26 -3.4 15 -9.7 62 62 N N/A 30.54 1034 10 16.0934 N/A
11:55 am 11:55 Cloudy 26 -3.4 15 -9.7 62 62 N N/A 30.54 1034 10 16.0934 N/A
12:15 pm 12:15 Cloudy 27 -3 15 -9.4 62 62 SSE 3 6 30.51 1033 10 16.0934 N/A
12:35 pm 12:35 Cloudy 27 -2.9 14 -9.8 59 59 S 3 6 30.5 1033 10 16.0934 N/A
12:55 pm 12:55 Cloudy 28 -2.5 15 -9.5 59 59 N N/A 30.49 1033 10 16.0934 N/A
1:15 pm 13:15 Cloudy 28 -2.2 15 -9.4 58 58 S 5 7 30.49 1033 10 16.0934 N/A
1:35 pm 13:35 Cloudy 28 -2.1 16 -9.1 59 59 N N/A 30.47 1032 10 16.0934 N/A
1:55 pm 13:55 Mostly Cloudy 29 -1.8 16 -8.9 59 59 SSW 6 9 30.47 1032 10 16.0934 N/A
2:15 pm 14:15 Partly Cloudy 28 -2 16 -9 59 59 SSW 3 6 30.45 1031 10 16.0934 N/A
2:35 pm 14:35 Sunny 30 -1.3 17 -8.6 58 58 SW 5 7 30.45 1031 10 16.0934 N/A
2:55 pm 14:55 Sunny 30 -1.1 16 -8.8 56 56 SW 5 7 30.44 1031 10 16.0934 N/A
3:15 pm 15:15 Sunny 29 -1.8 15 -9.3 57 57 N N/A 30.43 1030 10 16.0934 N/A
3:35 pm 15:35 Sunny 28 -2.1 16 -9.1 59 59 SW 5 7 30.44 1031 10 16.0934 N/A
3:55 pm 15:55 Sunny 29 -1.8 16 -8.9 59 59 SW 6 9 30.43 1030 10 16.0934 N/A
4:15 pm 16:15 Sunny 30 -1.1 16 -9.1 55 55 SW 3 6 30.43 1030 10 16.0934 N/A
4:35 pm 16:35 Sunny 30 -1 15 -9.3 54 54 SSW 3 6 30.43 1030 10 16.0934 N/A
4:55 pm 16:55 Sunny 30 -1.1 15 -9.6 53 53 SW 3 6 30.43 1030 10 16.0934 N/A
5:15 pm 17:15 Sunny 30 -1.2 15 -9.6 53 53 N N/A 30.43 1030 10 16.0934 N/A
5:35 pm 17:35 Sunny 29 -1.4 15 -9.4 55 55 N N/A 30.42 1030 10 16.0934 N/A
5:55 pm 17:55 Clear 28 -2.1 15 -9.6 57 57 N N/A 30.42 1030 10 16.0934 N/A
6:15 pm 18:15 Clear 28 -2.2 15 -9.6 57 57 N N/A 30.41 1030 10 16.0934 N/A
6:35 pm 18:35 Clear 27 -3 18 -7.7 70 70 N N/A 30.42 1030 10 16.0934 N/A
6:55 pm 18:55 Clear 25 -3.8 18 -7.7 75 75 SW 3 6 30.44 1031 10 16.0934 N/A
7:15 pm 19:15 Clear 24 -4.4 19 -7.5 79 79 N N/A 30.44 1031 10 16.0934 N/A
7:35 pm 19:35 Clear 23 -5 18 -7.7 82 82 N N/A 30.45 1031 10 16.0934 N/A
7:55 pm 19:55 Clear 22 -5.3 18 -7.9 82 82 N N/A 30.45 1031 10 16.0934 N/A
8:15 pm 20:15 Clear 23 -5.2 18 -7.7 83 83 N N/A 30.44 1031 10 16.0934 N/A
8:35 pm 20:35 Clear 22 -5.4 18 -7.7 84 84 N N/A 30.44 1031 10 16.0934 N/A
8:55 pm 20:55 Clear 22 -5.6 18 -8 83 83 SW 3 6 30.42 1030 10 16.0934 N/A
9:15 pm 21:15 Clear 22 -5.8 18 -8 85 85 N N/A 30.42 1030 10 16.0934 N/A
9:35 pm 21:35 Clear 20 -6.5 17 -8.2 88 88 N N/A 30.41 1030 10 16.0934 N/A
9:55 pm 21:55 Clear 21 -6.3 17 -8.3 86 86 W 3 6 30.41 1030 10 16.0934 N/A
10:15 pm 22:15 Clear 20 -6.8 17 -8.5 88 88 N N/A 30.41 1030 10 16.0934 N/A
10:35 pm 22:35 Clear 20 -6.6 17 -8.3 88 88 N N/A 30.41 1030 10 16.0934 N/A
10:55 pm 22:55 Clear 19 -7 17 -8.3 91 91 N N/A 30.42 1030 10 16.0934 N/A
11:15 pm 23:15 Clear 20 -6.6 17 -8.1 89 89 N N/A 30.4 1030 10 16.0934 N/A
11:35 pm 23:35 Clear 20 -6.7 17 -8.2 89 89 N 3 6 30.41 1030 10 16.0934 N/A
11:55 pm 23:55 Clear 20 -6.8 17 -8.3 89 89 N N/A 30.41 1030 10 16.0934 N/A

Powered by AerisWeather